• Em Portugal
  • Lista de países
  • Para 7 dias
  • Temperatura da água
  • Mapas de satélite
  • Mapa do tempo
  • Widgets de tempo
  • user-avatar
    Iniciar Sessão

    Previsão horária em Laszkar Gah

    Hoje, 23 Janeiro, Terça-feira

    Tempo Temperatura Precipitação Vento Pressão Humidade
    00:00 +10°C° 0 mm 1 m/s 694 mmHg 59%
    01:00 +9°C° 0 mm 1 m/s 694 mmHg 60%
    02:00 +9°C° 0 mm 1 m/s 694 mmHg 61%
    03:00 +9°C° 0 mm 1 m/s 693 mmHg 62%
    04:00 +8°C° 0 mm 1 m/s 693 mmHg 62%
    05:00 +8°C° 0 mm 1 m/s 693 mmHg 63%
    06:00 +8°C° 0 mm 1 m/s 694 mmHg 63%
    07:00 +7°C° 0 mm 1 m/s 694 mmHg 63%
    08:00 +9°C° 0 mm 1 m/s 694 mmHg 55%
    09:00 +11°C° 0 mm 1 m/s 695 mmHg 48%
    10:00 +13°C° 0 mm 1 m/s 695 mmHg 38%
    11:00 +14°C° 0 mm 2 m/s 695 mmHg 34%
    12:00 +15°C° 0 mm 2 m/s 695 mmHg 30%
    13:00 +16°C° 0 mm 2 m/s 694 mmHg 27%
    14:00 +16°C° 0 mm 2 m/s 694 mmHg 26%
    15:00 +16°C° 0 mm 1 m/s 694 mmHg 24%
    16:00 +16°C° 0 mm 1 m/s 693 mmHg 28%
    17:00 +15°C° 0 mm 1 m/s 693 mmHg 31%
    18:00 +14°C° 0 mm 1 m/s 693 mmHg 34%
    19:00 +13°C° 0 mm 1 m/s 693 mmHg 37%
    20:00 +12°C° 0 mm 1 m/s 693 mmHg 38%
    21:00 +12°C° 0 mm 1 m/s 693 mmHg 39%
    22:00 +12°C° 0 mm 1 m/s 693 mmHg 40%
    23:00 +10°C° 0 mm 2 m/s 693 mmHg 41%

    Amanhã, 24 Janeiro, Quarta-feira

    Tempo Temperatura Precipitação Vento Pressão Humidade
    00:00 +10°C° 0 mm 2 m/s 692 mmHg 41%
    01:00 +10°C° 0 mm 2 m/s 692 mmHg 41%
    02:00 +10°C° 0 mm 2 m/s 692 mmHg 42%
    03:00 +9°C° 0 mm 2 m/s 692 mmHg 42%
    04:00 +9°C° 0 mm 2 m/s 692 mmHg 43%
    05:00 +9°C° 0 mm 2 m/s 692 mmHg 43%
    06:00 +9°C° 0 mm 2 m/s 692 mmHg 43%
    07:00 +8°C° 0 mm 2 m/s 692 mmHg 43%
    08:00 +10°C° 0 mm 2 m/s 693 mmHg 38%
    09:00 +13°C° 0 mm 2 m/s 693 mmHg 33%
    10:00 +15°C° 0 mm 2 m/s 694 mmHg 27%
    11:00 +16°C° 0 mm 1 m/s 694 mmHg 25%
    12:00 +18°C° 0 mm 1 m/s 694 mmHg 22%
    13:00 +17°C° 0 mm 0 m/s 693 mmHg 19%
    14:00 +20°C° 0 mm 1 m/s 693 mmHg 18%
    15:00 +20°C° 0 mm 1 m/s 693 mmHg 17%
    16:00 +19°C° 0 mm 2 m/s 693 mmHg 17%
    17:00 +19°C° 0 mm 1 m/s 693 mmHg 19%
    18:00 +16°C° 0 mm 1 m/s 693 mmHg 21%
    19:00 +15°C° 0 mm 1 m/s 693 mmHg 24%
    20:00 +14°C° 0 mm 1 m/s 693 mmHg 25%
    21:00 +13°C° 0 mm 1 m/s 693 mmHg 26%
    22:00 +13°C° 0 mm 1 m/s 693 mmHg 27%
    23:00 +12°C° 0 mm 1 m/s 693 mmHg 28%

    Depois de amanhã, 25 Janeiro, Quinta-feira

    Tempo Temperatura Precipitação Vento Pressão Humidade
    00:00 +12°C° 0 mm 1 m/s 693 mmHg 28%
    01:00 +12°C° 0 mm 1 m/s 693 mmHg 29%
    02:00 +11°C° 0 mm 1 m/s 693 mmHg 29%
    03:00 +10°C° 0 mm 2 m/s 693 mmHg 30%
    04:00 +10°C° 0 mm 2 m/s 693 mmHg 30%
    05:00 +10°C° 0 mm 2 m/s 693 mmHg 30%
    06:00 +9°C° 0 mm 2 m/s 693 mmHg 31%
    07:00 +9°C° 0 mm 2 m/s 693 mmHg 31%
    08:00 +12°C° 0 mm 2 m/s 694 mmHg 27%
    09:00 +14°C° 0 mm 2 m/s 695 mmHg 23%
    10:00 +17°C° 0 mm 2 m/s 695 mmHg 19%
    11:00 +18°C° 0 mm 3 m/s 695 mmHg 18%
    12:00 +19°C° 0 mm 3 m/s 695 mmHg 16%
    13:00 +21°C° 0 mm 4 m/s 695 mmHg 15%
    14:00 +21°C° 0 mm 4 m/s 694 mmHg 14%
    15:00 +21°C° 0 mm 4 m/s 694 mmHg 14%
    16:00 +21°C° 0 mm 5 m/s 694 mmHg 14%
    17:00 +19°C° 0 mm 4 m/s 694 mmHg 16%
    18:00 +18°C° 0 mm 4 m/s 694 mmHg 18%
    19:00 +16°C° 0 mm 3 m/s 694 mmHg 20%
    20:00 +16°C° 0 mm 3 m/s 694 mmHg 21%
    21:00 +14°C° 0 mm 3 m/s 694 mmHg 22%
    22:00 +13°C° 0 mm 3 m/s 694 mmHg 23%
    23:00 +14°C° 0 mm 2 m/s 694 mmHg 24%

    26 Janeiro, Sexta-feira

    Tempo Temperatura Precipitação Vento Pressão Humidade
    00:00 +13°C° 0 mm 2 m/s 693 mmHg 25%
    01:00 +12°C° 0 mm 2 m/s 693 mmHg 26%
    02:00 +12°C° 0 mm 2 m/s 693 mmHg 27%
    03:00 +10°C° 0 mm 2 m/s 693 mmHg 27%
    04:00 +11°C° 0 mm 1 m/s 693 mmHg 28%
    05:00 +11°C° 0 mm 1 m/s 693 mmHg 29%
    06:00 +10°C° 0 mm 1 m/s 693 mmHg 29%
    07:00 +10°C° 0 mm 1 m/s 693 mmHg 30%
    08:00 +12°C° 0 mm 2 m/s 694 mmHg 26%
    09:00 +14°C° 0 mm 2 m/s 695 mmHg 22%
    10:00 +16°C° 0 mm 2 m/s 696 mmHg 19%
    11:00 +17°C° 0 mm 2 m/s 695 mmHg 17%
    12:00 +18°C° 0 mm 2 m/s 695 mmHg 16%
    13:00 +19°C° 0 mm 2 m/s 694 mmHg 15%
    14:00 +20°C° 0 mm 2 m/s 694 mmHg 14%
    15:00 +20°C° 0 mm 3 m/s 694 mmHg 14%
    16:00 +20°C° 0 mm 3 m/s 694 mmHg 13%
    17:00 +19°C° 0 mm 3 m/s 694 mmHg 15%
    18:00 +17°C° 0 mm 3 m/s 694 mmHg 16%
    19:00 +16°C° 0 mm 3 m/s 694 mmHg 17%
    20:00 +14°C° 0 mm 3 m/s 694 mmHg 18%
    21:00 +13°C° 0 mm 3 m/s 694 mmHg 18%
    22:00 +13°C° 0 mm 3 m/s 694 mmHg 19%
    23:00 +13°C° 0 mm 2 m/s 693 mmHg 20%

    27 Janeiro, Sábado

    Tempo Temperatura Precipitação Vento Pressão Humidade
    00:00 +13°C° 0 mm 2 m/s 693 mmHg 21%
    01:00 +12°C° 0 mm 2 m/s 693 mmHg 21%
    02:00 +12°C° 0 mm 2 m/s 692 mmHg 22%
    03:00 +10°C° 0 mm 2 m/s 692 mmHg 22%
    04:00 +10°C° 0 mm 2 m/s 692 mmHg 23%
    05:00 +10°C° 0 mm 1 m/s 692 mmHg 24%
    06:00 +10°C° 0 mm 1 m/s 692 mmHg 24%
    07:00 +10°C° 0 mm 1 m/s 692 mmHg 25%
    08:00 +12°C° 0 mm 1 m/s 693 mmHg 22%
    09:00 +14°C° 0 mm 1 m/s 694 mmHg 19%
    10:00 +16°C° 0 mm 1 m/s 694 mmHg 16%
    11:00 +18°C° 0 mm 1 m/s 694 mmHg 15%
    12:00 +19°C° 0 mm 1 m/s 693 mmHg 14%
    13:00 +19°C° 0 mm 2 m/s 693 mmHg 12%
    14:00 +20°C° 0 mm 1 m/s 693 mmHg 12%
    15:00 +21°C° 0 mm 1 m/s 692 mmHg 12%
    16:00 +21°C° 0 mm 1 m/s 692 mmHg 12%
    17:00 +19°C° 0 mm 1 m/s 692 mmHg 14%
    18:00 +18°C° 0 mm 1 m/s 692 mmHg 15%
    19:00 +15°C° 0 mm 1 m/s 692 mmHg 17%
    20:00 +15°C° 0 mm 1 m/s 692 mmHg 18%
    21:00 +15°C° 0 mm 2 m/s 692 mmHg 18%
    22:00 +14°C° 0 mm 2 m/s 692 mmHg 18%
    23:00 +14°C° 0 mm 2 m/s 691 mmHg 18%

    28 Janeiro, Domingo

    Tempo Temperatura Precipitação Vento Pressão Humidade
    00:00 +13°C° 0 mm 3 m/s 691 mmHg 19%
    01:00 +12°C° 0 mm 3 m/s 691 mmHg 19%
    02:00 +12°C° 0 mm 3 m/s 690 mmHg 19%
    03:00 +12°C° 0 mm 3 m/s 690 mmHg 19%
    04:00 +12°C° 0 mm 3 m/s 690 mmHg 20%
    05:00 +11°C° 0 mm 3 m/s 690 mmHg 20%
    06:00 +11°C° 0 mm 3 m/s 690 mmHg 20%
    07:00 +11°C° 0 mm 4 m/s 690 mmHg 20%
    08:00 +13°C° 0 mm 4 m/s 691 mmHg 18%
    09:00 +15°C° 0 mm 4 m/s 691 mmHg 15%
    10:00 +18°C° 0 mm 4 m/s 692 mmHg 13%
    11:00 +19°C° 0 mm 4 m/s 691 mmHg 12%
    12:00 +21°C° 0 mm 4 m/s 690 mmHg 11%
    13:00 +22°C° 0 mm 4 m/s 690 mmHg 11%
    14:00 +22°C° 0 mm 4 m/s 689 mmHg 12%
    15:00 +22°C° 0 mm 4 m/s 688 mmHg 13%
    16:00 +22°C° 0 mm 4 m/s 688 mmHg 14%
    17:00 +21°C° 0 mm 3 m/s 688 mmHg 17%
    18:00 +19°C° 0 mm 3 m/s 688 mmHg 19%
    19:00 +18°C° 0 mm 2 m/s 688 mmHg 22%
    20:00 +18°C° 0 mm 2 m/s 688 mmHg 23%
    21:00 +18°C° 0 mm 2 m/s 688 mmHg 24%
    22:00 +17°C° 0 mm 3 m/s 688 mmHg 25%
    23:00 +16°C° 0 mm 3 m/s 688 mmHg 26%
    Mostrar mais